www.pogodaiklimat.ru

Погода и климат >> Архив погоды >> Антарктида >> Mawson


ПОГОДА в Mawson

  • Прогноз погоды в Mawson
  • Монитор погоды в Mawson
  • Климат города

АРХИВ ПОГОДЫ в Mawson

Время (UTC), дата Ветер
(напр.,м/с)
 
Видим.   Явления Облачность Т
(С)
Тd
(С)
f
(%)
Тe
(С)
Тes
(С)
Комфортность P
(гПа)
Po
(гПа)
Тmin
(С)
Tmax
(С)
R
(мм)
R24
(мм)
S
(см)
15 9.07 С 2 н/о н/о -33.4 -37.5 66 -40 -40 опасность
обморожения
993.7 991.6 -24.2
18 9.07 З 2 н/о н/о -33.3 -37.4 66 -40 -40 опасность
обморожения
993.5 991.4
21 9.07 З 3 н/о н/о -32.2 -36.7 64 -41 -41 опасность
обморожения
993.1 991.0
00 10.07 СЗ 2 н/о н/о -32.3 -37.1 62 -39 -39 опасность
обморожения
992.6 990.5
03 10.07 ЮВ 2 30 км 1/0
[Ac trans]
-31.5 -36.6 61 -38 -38 опасность
обморожения
992.1 990.0 -33.9
06 10.07 З 3 30 км 1/0
[Ci fib]
-31.6 -36.1 64 -41 -41 опасность
обморожения
991.8 989.7
09 10.07 Ю 2 30 км 4/0
[Ci fib]
-29.9 -35.8 56 -38 -38 опасность
обморожения
990.9 988.8
12 10.07 ЮВ 12 30 км 5/0
[Ci fib]
-24.8 -37.0 31 -41 -41 опасность
обморожения
988.3 986.2
15 10.07 ЮВ 17 н/о н/о -24.1 -33.6 41 -42 -42 опасность
обморожения
985.6 983.5 -24.5
18 10.07 В 13 н/о н/о -24.2 -30.8 54 -41 -41 опасность
обморожения
983.0 980.9
21 10.07 В 13 н/о н/о -20.9 -28.3 51 -36 -36 опасность
обморожения
977.9 975.9
00 11.07 ЮВ 24 н/о н/о -19.3 -23.8 67 -38 -38 опасность
обморожения
973.2 971.2
03 11.07 ЮВ 30 1000 м метель 9/9 1000 м
[Sc]
-18.1 -21.0 78 -37 -37 опасность
обморожения
969.3 967.3 -32.5
06 11.07 ЮВ 28 1000 м метель 9/9 1000 м
[Sc]
-17.5 -20.8 75 -36 -36 опасность
обморожения
970.7 968.7
09 11.07 ЮВ 20 3000 м метель 9/9 1000 м
[Sc]
-16.5 -23.0 57 -33 -33 опасность
обморожения
974.6 972.6
12 11.07 ЮВ 14 20 км позёмок {метель} 9/9 1000 м
[Sc]
-15.0 -24.5 44 -29 -29 977.5 975.5
15 11.07 Ю 11 н/о н/о -17.7 -27.2 43 -31 -31 опасность
обморожения
980.4 978.3 -15.0
18 11.07 Ю 7 н/о н/о -18.6 -28.5 41 -30 -30 982.1 980.0
21 11.07 ЮВ 9 н/о н/о -20.2 -28.8 46 -33 -33 опасность
обморожения
983.1 981.0
00 12.07 Ю 9 н/о н/о -22.3 -30.9 45 -36 -36 опасность
обморожения
984.0 981.9
03 12.07 Ю 14 30 км 3/3 1500 м
[Sc]
-23.1 -31.7 45 -40 -40 опасность
обморожения
983.1 981.0 -23.5
06 12.07 ЮВ 11 30 км 1/1 1500 м
[Sc Ac trans]
-23.1 -31.7 45 -38 -38 опасность
обморожения
983.7 981.6
09 12.07 ЮВ 13 30 км 1/1 1500 м
[Sc Ac trans]
-22.4 -31.8 42 -38 -38 опасность
обморожения
984.0 981.9
12 12.07 ЮВ 13 30 км 1/0 2000 м
[Ac trans Ci fib]
-22.4 -32.0 41 -38 -38 опасность
обморожения
983.7 981.6
15 12.07 ЮВ 13 н/о н/о -21.5 -32.8 35 -37 -37 опасность
обморожения
984.4 982.3 -14.0
18 12.07 ЮВ 15 н/о н/о -22.5 -32.3 40 -40 -40 опасность
обморожения
983.3 981.2
21 12.07 ЮВ 18 н/о н/о -23.3 -31.0 49 -42 -42 опасность
обморожения
982.4 980.3
00 13.07 ЮВ 19 н/о н/о -23.4 -31.1 49 -42 -42 опасность
обморожения
980.3 978.2
03 13.07 ЮВ 19 1500 м метель 4/0 2000 м
[Ac trans Ci fib]
-23.6 -31.3 49 -42 -42 опасность
обморожения
977.9 975.9 -24.9
06 13.07 ЮВ 20 30 км позёмок 8/1 1500 м
[Sc Ac trans Ci sp]
-23.5 -31.0 50 -43 -43 опасность
обморожения
974.8 972.8
09 13.07 ЮВ 25 10 км метель 9/0 2000 м
[Ac trans Ci sp]
-22.2 -28.9 54 -42 -42 опасность
обморожения
968.7 966.7
12 13.07 ЮВ 28 10 км метель 9/0 2000 м
[Ac As Ci sp]
-20.7 -26.6 59 -41 -41 опасность
обморожения
965.5 963.5
15 13.07 ЮВ 30 н/о н/о -20.2 -23.3 76 -40 -40 опасность
обморожения
963.9 961.9 -20.1
18 13.07 ЮВ 19 н/о н/о -16.2 -24.6 48 -32 -32 опасность
обморожения
965.6 963.6
21 13.07 Ю 22 н/о н/о -17.7 -22.3 67 -35 -35 опасность
обморожения
965.8 963.8
00 14.07 Ю 21 н/о н/о -18.0 -23.7 61 -35 -35 опасность
обморожения
967.7 965.7
03 14.07 Ю 21 10 км метель 5/0 2000 м
[Ac trans]
-19.8 -24.8 64 -38 -38 опасность
обморожения
969.0 967.0 -23.9
06 14.07 Ю 17 30 км {метель} 6/0 2000 м
[Ac trans Ci fib]
-17.5 -24.3 55 -33 -33 опасность
обморожения
970.8 968.8
09 14.07 Ю 14 30 км 3/0 2000 м
[Ac trans Ci fib]
-18.6 -25.8 53 -34 -34 опасность
обморожения
972.2 970.2
12 14.07 Ю 15 30 км 3/1 1500 м
[Sc Ci fib]
-20.0 -27.1 53 -36 -36 опасность
обморожения
972.9 970.9
15 14.07 Ю 14 н/о н/о -21.5 -27.9 56 -37 -37 опасность
обморожения
973.4 971.4 -15.5
18 14.07 Ю 15 н/о н/о -22.3 -29.0 54 -39 -39 опасность
обморожения
974.1 972.1
21 14.07 Ю 13 н/о н/о -22.5 -30.0 50 -39 -39 опасность
обморожения
975.1 973.1
00 15.07 Ю 14 н/о н/о -23.0 -30.9 48 -40 -40 опасность
обморожения
976.8 974.8
03 15.07 Ю 15 30 км позёмок ясно -22.7 -30.9 47 -40 -40 опасность
обморожения
978.4 976.3 -23.1
06 15.07 ЮВ 12 30 км 1/1 1500 м
[Sc Ci fib]
-23.3 -32.3 43 -39 -39 опасность
обморожения
980.8 978.7
09 15.07 З 3 30 км 3/1 1500 м
[Sc Ac trans Ci fib]
-21.5 -32.8 35 -29 -29 984.1 982.0
12 15.07 Ю 8 30 км 3/3 600 м
[Sc Ci fib]
-23.1 -33.1 39 -37 -37 опасность
обморожения
985.1 983.0
15 15.07 ЮВ 7 н/о н/о -23.4 -32.7 42 -36 -36 опасность
обморожения
985.9 983.8 -16.6
18 15.07 Ю 8 н/о н/о -24.4 -33.8 41 -38 -38 опасность
обморожения
986.0 983.9
21 15.07 Ю 10 н/о н/о -26.5 -35.3 43 -42 -42 опасность
обморожения
986.2 984.1
00 16.07 Ю 17 н/о н/о -26.3 -32.6 55 -45 -45 опасность
обморожения
986.4 984.3
03 16.07 Ю 15 30 км позёмок 9/9 600 м
[Sc]
-24.1 -31.9 48 -41 -41 опасность
обморожения
986.3 984.2 -27.6
06 16.07 ЮВ 12 30 км позёмок 9/9 1000 м
[Sc]
-21.7 -30.6 44 -37 -37 опасность
обморожения
986.4 984.3
09 16.07 ЮВ 20 1000 м метель 9/9 1000 м
[Sc]
-19.4 -23.6 69 -37 -37 опасность
обморожения
985.2 983.1

 

Местоположение метеостанции Mawson (Антарктида): широта -67.60 долгота 62.87 высота над уровнем моря 16 м.

В архиве по умолчанию представлена погода в Mawson за последнюю неделю. Архивные данные за месяц целиком и за предыдущие месяцы, начиная с января 2011 года, Вы можете получить, выбрав интересующий диапазон дат из раскрывающегося списка и нажав кнопку "Ввод!".


*Определитесь, кто Вы:
робот инопланетянин человек

Внимание! Время в таблицах - всемирное. Для получения местного времени необходимо прибавить поправку, которая в Mawson равна 0 ч.

Смотрите также архив погоды в соседних городах и на ближайших метеорологических станциях:

Погода в Amery Ice Shelf (Антарктида) (459 км)
Погода в Druzhnaya-4 (Антарктида) (497 км)
Погода в Bharati (Антарктида) (578 км)
Погода в Zhongshan (Антарктида) (583 км)
Погода в Progress (Антарктида) (584 км)
Погода в Davis (Антарктида) (634 км)
Погода в Davis (Whoop Whoop) (Антарктида) (669 км)
Погода в Molodezhnaya (Антарктида) (718 км)
Погода в Relay Station (Антарктида) (1007 км)
Погода в Dome Plateau Eagle (Антарктида) (1087 км)

Пояснения к столбцам:

Ветер - указаны скорость ветра в м/с - средняя за 10 мин, порывы в срок и между сроками (в фигурных скобках) и направление, откуда дует ветер: С - северный, СВ - северо-восточный, В - восточный, ЮВ - юго-восточный, Ю - южный, ЮЗ - юго-западный, З - западный, СЗ - северо-западный.
Видимость - горизонтальная дальность видимости в метрах или километрах. При видимости от 1 до 10 км при отсутствии осадков обычно наблюдается дымка, при ухудшении видимости до 1 км и менее - туман. В сухую погоду видимость может ухудшаться дымом, пылью или мглою.
Явления - указаны атмосферные явления, наблюдавшиеся в срок или в последний час перед сроком; фигурными скобками обозначены явления, наблюдавшиеся между сроками (за 1-3 часа до срока); квадратными скобками обозначены град или гололедные отложения с указанием их диаметра в мм.
Облачность - указаны через наклонную черту общая и нижняя облачность в баллах и высота нижней границы облаков в метрах; квадратными скобками обозначены формы облаков: Ci - перистые, Cs - перисто-слоистые, Cc - перисто-кучевые, Ac - высококучевые, As - высокослоистые, Sc - слоисто-кучевые, Ns - слоисто-дождевые, Cu - кучевые, Cb - кучево-дождевые. Подробнее классификацию облаков см. в Атласе облаков (PDF).
T - Температура воздуха - температура, измеренная на высоте 2 м над землей.
Td - Температура точки росы - температура, при понижении до которой содержащийся в воздухе водяной пар достигнет насыщения.
f - Относительная влажность воздуха - влажноcть воздуха, измеренная на высоте 2 м над землей.
Te - Эффективная температура - температура, которую ощущает одетый по сезону человек в тени. Характеристика душности погоды. При расчете учитывается влияние влажности воздуха и скорости ветра на теплоощущения человека.
Tes - Эффективная температура на солнце - температура, которую ощущает человек, с поправкой на солнечный нагрев. Характеристика знойности погоды. Зависит от высоты солнца над горизонтом, облачности и скорости ветра. Ночью, в пасмурную погоду, а также при ветре 12 м/с и более поправка равна нулю.
P - Атмосферное давление - приведенное к уровню моря атмосферное давление.
Po - Атмосферное давление - измеренное на уровне метеостанции атмосферное давление.
Tmin - Минимальная температура - минимум температуры воздуха на высоте 2 м над землей.
Tmax - Максимальная температура - максимум температуры воздуха на высоте 2 м над землей.
R - Количество осадков - Количество выпавших осадков за период времени, мм. При наведении курсора мыши на число - период времени, за который выпало указанное количество осадков.
R24 - Количество осадков - Количество выпавших осадков за 24 часа, мм.
S - Снежный покров - Высота снежного покрова, см. При наведении курсора мыши на число - состояние снежного покрова и степень покрытия местности в баллах.